Weather History for KPRC - April, 2013

Change the Weather History Date:

Sunday, April 14, 2013

  Actual Average Record
Temperature  
Mean Temperature 61 °F 52 °F  
Max Temperature 71 °F 67 °F 84 °F (2002)
Min Temperature 50 °F 38 °F 19 °F (1972)
Degree Days  
Heating Degree Days 4    
Month to date heating degree days 162  
Since 1 July heating degree days 3672  
Cooling Degree Days 0    
Month to date cooling degree days 0  
Year to date cooling degree days 0  
Growing Degree Days 10 (Base 50)    
Moisture  
Dew Point 26 °F    
Average Humidity 28    
Maximum Humidity 36    
Minimum Humidity 15    
Precipitation  
Precipitation 0.00 in 0.02 in 0.50 in (1976)
Month to date precipitation 0.08 0.28  
Year to date precipitation 2.47 3.86  
Sea Level Pressure  
Sea Level Pressure 29.61 in    
Wind  
Wind Speed 12 mph (South)    
Max Wind Speed 25 mph    
Max Gust Speed 33 mph    
Visibility 10 miles    
Events      
T = Trace of Precipitation, MM = Missing Value Source: NWS Daily Summary

Daily Weather History Graph

Daily Weather History Graph

Search for Another Location

Airport or City:

Trip Planner

Search our weather history database for the weather conditions in past years. The results will help you decide how hot, cold, wet, or windy it might be!

Date:

Astronomy

Apr. 14, 2013 Rise Set
Actual Time 5:58 AM MST 7:01 PM MST
Civil Twilight 5:33 AM MST 7:27 PM MST
Nautical Twilight 5:02 AM MST 7:58 PM MST
Astronomical Twilight 4:30 AM MST 8:29 PM MST
Moon 8:46 AM MST (4/14) 11:10 PM MST (4/14)
Length of Visible Light 13h 54m
Length of Day
13h 02m
Waxing Crescent, 18% of the Moon is Illuminated
Apr 14
Waxing Crescent
Apr 18
First Quarter
Apr 25
Full
May 2
Last Quarter
May 9
New

Hourly Weather History & Observations

Time (MST) Temp. Dew Point Humidity Pressure Visibility Wind Dir Wind Speed Gust Speed Precip Events Conditions
12:53 AM 57.0 °F 27.0 °F 32% 29.63 in 10.0 mi SSW 5.8 mph - N/A   Clear
1:53 AM 54.0 °F 26.1 °F 34% 29.63 in 10.0 mi South 4.6 mph - N/A   Clear
2:53 AM 53.1 °F 25.0 °F 34% 29.62 in 10.0 mi SE 3.5 mph - N/A   Clear
3:53 AM 51.1 °F 24.1 °F 35% 29.62 in 10.0 mi South 4.6 mph - N/A   Clear
4:53 AM 53.1 °F 23.0 °F 31% 29.62 in 10.0 mi South 10.4 mph - N/A   Clear
5:53 AM 52.0 °F 24.1 °F 34% 29.61 in 10.0 mi SSE 9.2 mph - N/A   Clear
6:53 AM 50.0 °F 24.1 °F 36% 29.65 in 10.0 mi East 4.6 mph - N/A   Clear
7:53 AM 55.0 °F 25.0 °F 31% 29.66 in 10.0 mi SE 10.4 mph - N/A   Clear
8:53 AM 60.1 °F 24.1 °F 25% 29.65 in 10.0 mi South 11.5 mph - N/A   Clear
9:53 AM 63.0 °F 25.0 °F 24% 29.66 in 10.0 mi South 11.5 mph 18.4 mph N/A   Clear
10:53 AM 66.0 °F 26.1 °F 22% 29.65 in 10.0 mi South 11.5 mph 19.6 mph N/A   Clear
11:53 AM 68.0 °F 19.9 °F 16% 29.64 in 10.0 mi SW 16.1 mph 21.9 mph N/A   Clear
1:53 PM 70.0 °F 25.0 °F 18% 29.62 in 10.0 mi SW 18.4 mph 25.3 mph N/A   Clear
2:53 PM 70.0 °F 27.0 °F 20% 29.60 in 10.0 mi SW 21.9 mph 25.3 mph N/A   Clear
3:53 PM 68.0 °F 27.0 °F 21% 29.59 in 10.0 mi SSW 18.4 mph 29.9 mph N/A   Partly Cloudy
4:53 PM 68.0 °F 27.0 °F 21% 29.57 in 10.0 mi SW 18.4 mph 27.6 mph N/A   Partly Cloudy
5:53 PM 66.9 °F 27.0 °F 22% 29.58 in 10.0 mi SSW 12.7 mph 25.3 mph N/A   Partly Cloudy
6:53 PM 64.0 °F 27.0 °F 25% 29.59 in 10.0 mi SSW 15.0 mph 24.2 mph N/A   Clear
7:53 PM 61.0 °F 26.1 °F 26% 29.60 in 10.0 mi SSW 10.4 mph 18.4 mph N/A   Clear
8:53 PM 59.0 °F 28.9 °F 32% 29.58 in 10.0 mi South 9.2 mph - N/A   Clear
9:53 PM 57.9 °F 30.9 °F 36% 29.59 in 10.0 mi SSW 13.8 mph - N/A   Clear
10:53 PM 57.0 °F 30.9 °F 37% 29.58 in 10.0 mi SSW 16.1 mph 24.2 mph N/A   Clear
11:53 PM 54.0 °F 32.0 °F 43% 29.58 in 10.0 mi SSW 12.7 mph 23.0 mph N/A   Clear